Powrót do katalogu

DELTA 1 DEB

AktywnyLEO
NORAD 10629·DEBRIS·🇺🇸 United States

Wystrzelony Jul 14, 1977 z Cape Canaveral Space Force Station

Loading…

Następne Przeloty (najbliższe 24 godziny)

TLE

ŚwieżeSource: Space-Track

Epoka: Sep 14, 2026, 11:10 UTC

1 10629U 77065EY  26257.46564070  .00000048  00000-0  39518-5 0  9990
2 10629  29.8301  29.3910 0813633   2.6225 357.8273 12.80264651289490

Śledź DELTA 1 DEB w czasie rzeczywistym z AllMySat

Download on the App Store